931  
ASUS41 KAKQ 242215  
RWRAKQ  
 
REGIONAL WEATHER ROUNDUP  
NATIONAL WEATHER SERVICE WAKEFIELD VA  
600 PM EDT TUE APR 24 2018  
 
NOTE: "FAIR" INDICATES FEW OR NO CLOUDS BELOW 12,000 FEET WITH NO  
SIGNIFICANT WEATHER AND/OR S TO VISIBILITY
. * = DENOTES  
STATION MAY NOT REPORT PRECIPITATION (E.G., RAIN,SNOW,ETC.),
 
THUNDER OR FOG.  
 
VAZ042-051-052>054-056-242300-  
NORTHERN VIRGINIA  
 
CITY SKY/WX TMP DP RH WIND PRES REMARKS
 
WASH NATIONAL LGT RAIN 59 52 77 E9 30.08F  
DULLES LGT RAIN 56 53 90 E8 30.07F  
FORT BELVOIR LGT RAIN 57 52 85 E3 30.06F  
QUANTICO LGT RAIN 57 55 93 E9 30.06F FOG  
FREDERICKSBRG* DRIZZLE 55 55 100 E10G18 30.03S  
STAFFORD* LGT RAIN 56 56 100 E8 30.08S  
WARRENTON LGT RAIN 56 52 85 E8 30.04S  
CULPEPER* RAIN 56 53 91 E3 30.06R  
MANASSAS* LGT RAIN 56 53 90 E10 30.05F  
LEESBURG* RAIN 55 55 100 E6 30.08F  
WINCHESTER CLOUDY 54 50 87 E9 30.08S  
FRONT ROYAL* CLOUDY 54 52 94 E5 30.04S  
LURAY* DRIZZLE 54 52 94 NE7 30.03S  

 
 
VAZ048-049-060>072-079>083-242300-  
CENTRAL AND SOUTH CENTRAL VIRGINIA  
 
CITY SKY/WX TMP DP RH WIND PRES REMARKS
 
RICHMOND LGT RAIN 57 57 100 E13 29.97F FOG  
CHESTERFIELD* LGT RAIN 57 55 93 E8 29.97S FOG  
PETERSBURG* DRIZZLE 57 55 92 E9 29.96S  
HANOVER LGT RAIN 56 56 100 E8 30.00F FOG  
TAPPAHANNOCK* LGT RAIN 56 56 97 E12G20 30.02F  
QUINTON* CLOUDY 56 56 100 E8G22 29.97F FOG  
CHARLOTTSVILLE LGT RAIN 56 54 93 NE12 30.00S FOG  
GORDONSVILLE* CLOUDY 55 55 100 NE7 30.00F FOG  
ORANGE* LGT RAIN 54 52 94 CALM 30.02S  
LOUISA* LGT RAIN 55 54 97 E12 30.03F FOG  
BUMPASS* NOT AVBL  
FARMVILLE* DRIZZLE N/A N/A N/A NE7 29.92F  
CREWE* CLOUDY 57 57 100 E9 29.92F  
FORT PICKETT* CLOUDY 57 57 100 E8G16 29.93S  
CHASE CITY* CLOUDY 58 58 100 E8 29.90R  
CLARKSVILLE* CLOUDY 59 59 100 E8G17 29.88S  
SOUTH HILL* CLOUDY 58 58 100 SE3 29.96S  
LAWRENCEVILLE* CLOUDY 58 57 97 NE7 29.90F  
EMPORIA* CLOUDY 59 59 100 NE5 29.93F  

 
 
VAZ088>098-242300-  
SOUTHEAST VIRGINIA  
 
CITY SKY/WX TMP DP RH WIND PRES REMARKS
 
NORFOLK CLOUDY 59 57 93 SE15G29 29.97F  
VIRGINIA BEACH CLOUDY 56 56 100 E21G28 29.98F FOG  
NORFOLK NAVAL RAIN 59 56 89 SE21G29 29.98F FOG  
WEST POINT* CLOUDY 57 55 94 E13G20 30.01F  
SALUDA* CLOUDY 56 56 100 E9G17 30.01F  
NEWPORT NEWS CLOUDY 59 56 89 SE21G30 29.97F FOG  
LANGLEY AFB LGT RAIN 57 57 100 SE17G29 29.97S FOG  
FORT EUSTIS CLOUDY 59 57 91 SE15G21 29.94F  
WILLIAMSBURG* CLOUDY 59 57 94 SE10G22 29.98F  
HR EXEC AP* LGT RAIN 60 58 92 SE15 29.96F  
FRANKLIN* HVY RAIN 60 59 94 SE10 29.94F  
US460-WAKEFLD CLOUDY 60 59 96 E9 29.94F  

 
 
VAZ020-022-025-037-045-242300-  
WEST CENTRAL AND SOUTHWEST VIRGINIA  
 
CITY SKY/WX TMP DP RH WIND PRES REMARKS
 
STAUNTON* DRIZZLE 53 51 95 NE7 30.02R  
WAYNESBORO* CLOUDY 53 53 99 E6G16 29.98S  
HOT SPRINGS VA HVY RAIN 41 41 100 E13G22 29.95S VSB<1/4  
LYNCHBURG LGT RAIN 56 54 93 NE10 29.92S FOG  
DANVILLE LGT RAIN 60 59 96 NE10 29.86F  
SOUTH BOSTON* CLOUDY 60 58 96 E8 29.88F  
MARTINSVILLE CLOUDY 58 56 95 E6 29.88F FOG  
ROANOKE LGT RAIN 57 54 89 NE10 29.93S FOG  
BLACKSBURG CLOUDY 56 54 94 E15G24 29.92S  
DUBLIN* CLOUDY 56 55 94 E10 29.90R  
MARION* LGT RAIN 55 55 99 NE10 29.89S  
HILLSVILLE* CLOUDY 55 54 94 E6 29.86S  
RICHLANDS* LGT RAIN 54 29 38 N3 29.87S  
WISE* DRIZZLE 54 54 100 CALM 29.88S  
ABINGDON* HVY RAIN 56 56 97 CALM 29.85R  

 
 
MDZ021>025-VAZ099-100-242300-  
SOUTHERN MARYLAND AND THE DELMARVA PENINSULA  
 
CITY SKY/WX TMP DP RH WIND PRES REMARKS
 
PATUXENT RIVER RAIN 58 53 84 E16 30.06F FOG  
BAY BRIDGE APT LGT RAIN 59 52 77 E9 30.10S  
LEONARDTOWN CLOUDY 54 52 94 E7 30.07F  
DOVER FAIR 55 49 78 E12G18 30.13F  
GEORGETOWN LGT RAIN 57 51 80 E8 30.12F  
EASTON LGT RAIN 59 50 72 E7 30.13F  
CAMBRIDGE MOSUNNY 57 54 88 E8 30.08F  
SALISBURY LGT RAIN 56 52 86 E10 30.08F  
TANGIER CLOUDY 57 55 94 E21G28 30.03F  
OCEAN CITY LGT RAIN 52 50 93 E10 30.11F  
WALLOPS ISLAND LGT RAIN 57 52 83 E17 30.08F  
ACCOMACK* LGT RAIN 55 53 93 SE15G26 30.04F  

 
 
NCZ012>017-030>032-242300-  
NORTH CENTRAL AND EASTERN NORTH CAROLINA  
 
CITY SKY/WX TMP DP RH WIND PRES REMARKS
 
ROANOKE RAPIDS CLOUDY 63 61 94 E3 29.89F  
RALEIGH CLOUDY 64 61 90 E9 29.85S  
ELIZABETH CITY CLOUDY 62 61 96 SE21G28 29.94F  
AHOSKIE* CLOUDY 62 61 99 E7G17 29.90F  
EDENTON* NOT AVBL  
CURRITUCK* NOT AVBL  
KILL DEVIL HLS RAIN 57 57 100 SE17G29 29.93F  
MANTEO CLOUDY 60 59 97 SE18G25 29.94F  
CAPE HATTERAS LGT RAIN 68 65 90 SE30G44 29.93F FOG  
TARBORO* NOT AVBL  
GOLDSBORO PTSUNNY 67 62 86 E9 29.83F  
WASHINGTON CLOUDY 66 63 89 SE9 29.88S  
GREENVILLE CLOUDY 66 63 88 SE9 29.89S  
NEW BERN LGT RAIN 62 62 100 SE7 29.88F FOG  
WILMINGTON FAIR 68 61 78 E9 29.84F  

 
 
VAZ048-242300-  
ELSEWHERE  
 
CITY SKY/WX TMP DP RH WIND PRES REMARKS
 
HARRISBURG PA CLOUDY 60 45 57 SE14 30.12F  
BALTIMORE LGT RAIN 58 52 80 E12 30.09F  
ANNAPOLIS LGT RAIN 62 52 69 E13 30.09F  
ANDREWS AFB FAIR 57 52 82 E7 30.07F  
PHILADELPHIA CLOUDY 60 44 55 E15 30.18F  
HENDERSON NC CLOUDY 59 56 90 E9 29.87F  
GREENSBORO CLOUDY 61 60 97 E7 29.82F  
ROCKY MOUNT CLOUDY 64 61 90 E6 29.86F  

 
 
VAZ100-242300-  
MARINE  
 
STATION/POSITION TIME TEMP WIND PRES WAVE SWELL
 
AIR SEA DIR/SP/G HT/PER HT/PER  
(UTC) (F) (DEG/KT/KT) (MB) (FT/S) (FT/S)  
BRANDYWINE LGT 2142 55 110/ 22/ 25 1020.6F  
CAPE MAY NJ 2148 54 53 100/ 16/ 20 1020.2F  
LEWES DE 2148 53 52 100/ 14/ 18 1019.8F  
15NM E FENWICK I 2150 49 47 70/ 16/ 19 1020.1F 4/ 8 2/ 8  
OCEAN-CITY-INLET 2148 53 51 110/ 9/ 13 1020.0F  
WACHAPREAGUE VA 2148 54 56 100/ 15/ 17 1017.8F  
THOMAS POINT MD 2100 60 53 110/ 15/ 17 1020.1  
GOOSES REEF MD 2200 57 130/ 14/ 16 1018.7  
COVE POINT MD 2148 57 130/ 15/ 20 1018.8F  
SOLOMONS ISLAND 2148 55 54 100/ 15/ 17 1017.8F  
BISHOPS HEAD MD 2148 58 56 80/ 14/ 21 1018.2F  
PINEY POINT MD 2148 110/ 18/ 20 N/A  
POTOMAC MD 2200 55 53 100/ 14/ 16 1018.5 2/ 3  
CAMBRIDGE MD 2148 58 56 1019.6F  
LEWISETTA VA 2148 54 56 100/ 15/ 18 1017.2F  
RAPPAHANNOCK LGT 2148 100/ 27/ 32 1016.6F  
YORK RVR RNG VA 2148 57 130/ 30/ 37 1015.3F  
YORKTOWN VA 2148 57 56 130/ 15/ 22 1015.0F  
DOMINION TERM VA 2148 59 120/ 19/ 26 1014.6S  
KIPTOPEKE VA 2148 54 120/ 16/ 23 N/A  
CAPE HENRY VA 2148 56 110/ 19/ 28 N/A  
WILLOUBY STN VA 2148 59 120/ 25/ 28 1014.2R  
S CRANEY ISL VA 2148 59 130/ 25/ 30 1014.4F  
CAPE HENRY BUOY 2200 51 N/A 6/ 9 2/11  
64NM E OF VA BCH 2150 55 50 130/ 17/ 21 1017.3F 13/ 9 11/ 9  
DUCK PIER NC 2148 56 53 110/ 21/ 25 1013.7F  
44100 DUCK FRF 2145 52 N/A 10/11 5/11  
44056 DUCK FRF 2200 52 N/A 9/ 9 3/11  
OREGON INLET NC 2142 58 54 110/ 12/ 18 1014.4F  
HATTERAS NC 2148 66 61 150/ 21/ 32 1013.0F  
DIAMOND SHLS NC 2150 69 71 150/ 29/ 39 1014.1F 18/10  
CAPE LOOKOUT NC 2100 140/ 19/ 21 1012.0  

 
 
 
CLICK HERE TO GO TO PREVIOUS BULLETINS.

The Nexlab VA Page
The Nexlab NC Page
The Nexlab MD Page Main Text Page